GFSSW_sfc_wetblb_138.txt.gz
Wetbulb
53.54 53.54 53.50 53.19 52.55 52.44 52.63 52.89 52.42 52.29 52.59 52.87 53.10 53.42 53.87 53.87 53.30 48.39 40.59 47.48 51.07 58.25 56.51 45.35 43.77 42.87 42.25 41.62 44.37 43.07 36.78 32.87 34.91 37.44 40.19 44.62 44.74 46.54 47.25 46.46 46.78 47.78 47.77 52.26 58.40
53.83 53.53 53.32 52.63 52.07 52.25 52.33 52.34 52.14 51.92 52.29 52.34 52.84 53.45 53.71 53.96 48.34 43.49 51.83 56.72 57.93 59.10 45.49 43.74 41.66 40.83 37.80 37.09 39.95 39.82 33.77 36.04 40.99 42.18 41.77 44.94 44.88 44.77 44.06 45.44 46.31 47.66 49.61 53.34 57.84
54.14 53.23 52.88 52.03 51.87 52.19 52.12 51.91 51.68 51.79 51.89 52.16 52.83 53.92 54.23 52.31 40.34 41.48 57.95 59.00 58.81 55.62 46.49 47.14 47.00 44.67 38.43 36.01 37.71 37.01 35.49 39.76 41.95 43.63 42.37 42.09 43.03 43.13 41.94 39.35 44.79 44.23 47.50 48.86 53.44
53.98 52.82 52.11 51.61 51.54 51.83 51.75 51.55 51.37 51.41 51.46 52.07 53.05 54.14 54.10 47.52 34.12 42.88 58.71 58.53 58.87 51.02 45.67 42.97 42.36 39.58 37.33 36.03 37.97 33.94 38.63 39.55 39.08 41.70 41.00 39.50 40.90 42.71 41.40 42.73 46.99 47.18 47.56 47.76 48.28
53.96 52.32 51.69 51.34 51.34 51.35 51.26 51.26 50.81 50.90 51.11 52.18 52.99 53.89 46.25 36.03 38.58 47.33 57.39 56.76 50.44 48.10 44.11 42.40 39.65 38.63 35.92 36.41 37.77 36.83 38.38 39.35 40.56 40.01 40.48 41.99 40.16 41.47 41.93 44.51 46.68 46.90 47.46 47.66 48.08
53.59 52.16 51.34 51.09 51.26 51.11 50.84 50.43 50.24 50.18 50.71 51.95 52.67 53.35 43.96 31.87 40.75 46.32 48.33 45.53 46.40 45.41 41.85 42.12 40.64 40.91 37.26 35.76 34.80 37.48 36.69 37.20 37.60 39.53 40.36 40.13 40.51 38.88 42.29 45.95 46.04 46.80 47.08 47.41 47.97
53.30 52.03 50.98 51.13 51.00 50.79 50.35 49.81 49.49 49.71 50.50 51.64 52.71 50.55 42.06 36.05 44.65 45.66 48.94 44.47 43.69 44.66 41.58 42.74 43.03 40.76 39.87 38.20 40.17 37.98 34.36 35.72 36.97 37.09 37.49 38.65 35.53 38.18 42.66 43.85 43.66 44.74 45.53 46.46 47.12
52.75 52.26 51.43 50.80 50.33 50.08 49.75 48.97 49.20 49.84 50.84 51.70 52.63 47.01 39.24 47.14 46.98 50.03 47.58 44.18 44.99 44.54 43.47 43.90 43.13 40.45 38.73 40.39 38.76 35.05 32.50 28.74 36.77 36.89 38.96 36.28 32.33 39.51 42.57 40.97 40.31 41.99 43.13 44.69 46.08
52.93 52.47 51.56 50.68 50.20 49.64 49.08 49.19 49.50 51.63 51.45 51.79 46.23 43.94 38.99 52.23 46.55 45.18 44.16 43.69 44.32 44.38 43.76 46.59 41.91 37.81 38.62 32.22 29.50 29.76 25.44 27.28 31.94 37.15 36.23 34.86 31.75 37.73 41.46 40.52 38.41 39.91 40.42 41.82 43.38
52.84 52.31 51.24 50.26 49.91 49.35 49.04 48.89 49.29 49.24 49.64 50.08 48.79 38.02 42.85 40.34 42.67 43.47 43.14 44.64 41.79 42.54 40.16 39.16 36.69 33.51 32.03 29.60 23.05 26.41 25.97 28.42 28.21 34.08 35.82 32.26 33.51 35.37 37.17 37.86 37.65 37.75 38.82 39.84 40.49
53.01 51.91 50.33 49.46 49.07 49.06 46.31 43.20 38.90 37.82 41.59 39.07 39.63 40.23 42.75 43.92 43.97 41.33 41.43 40.24 38.34 36.23 30.37 33.58 30.98 27.36 27.83 31.51 32.86 30.75 27.54 26.76 30.18 34.46 30.41 30.93 32.58 35.24 35.84 35.44 35.60 37.09 38.74 38.99 40.87
52.52 51.41 49.50 47.70 47.83 47.62 44.78 37.90 40.21 38.32 32.67 40.23 42.59 42.04 43.64 43.16 37.41 38.49 40.75 35.56 34.49 29.37 31.35 29.15 25.10 30.96 32.48 31.50 29.41 28.19 27.33 26.23 30.14 33.21 31.54 30.03 31.96 35.84 34.25 35.65 36.46 37.00 37.50 38.71 39.36
51.70 49.96 47.81 46.84 47.12 44.52 39.55 40.27 44.00 40.55 30.09 35.49 39.66 40.09 41.06 41.92 35.51 34.87 37.89 34.94 31.58 29.48 28.52 26.33 29.19 33.81 31.94 29.41 28.50 26.48 25.49 26.14 26.86 29.60 30.16 28.80 28.93 30.96 33.42 34.99 37.54 39.01 38.95 39.28 39.62
50.24 48.49 46.47 46.56 41.36 42.03 39.69 42.53 43.84 43.38 26.19 31.31 37.73 39.07 40.56 38.09 34.03 37.50 37.55 35.33 32.35 28.62 29.30 27.52 31.37 31.12 29.01 28.51 28.66 24.28 30.26 29.88 29.33 26.41 20.63 29.44 21.20 30.75 31.47 32.66 36.61 38.32 41.04 42.81 43.59
48.91 47.07 45.91 45.42 40.32 40.34 42.04 43.12 44.27 40.30 20.44 35.24 36.28 40.79 37.44 34.56 34.85 35.96 37.95 36.30 30.30 30.09 29.77 26.53 29.37 29.03 27.04 28.54 30.17 27.66 31.17 29.12 29.06 25.71 23.38 24.77 20.29 28.21 31.35 31.96 35.82 38.52 41.66 42.94 43.09
48.07 46.78 45.85 43.98 41.05 43.10 43.81 44.69 42.00 27.19 21.39 33.43 36.24 34.36 33.48 34.33 34.47 35.31 35.69 37.13 35.15 31.48 29.91 28.51 32.00 30.66 29.25 32.03 30.95 32.22 28.28 27.03 26.45 24.21 18.15 23.26 21.90 21.66 28.07 33.02 35.94 38.69 41.68 41.43 41.93
47.66 46.31 44.37 44.74 39.82 44.04 43.02 40.52 25.98 19.84 34.01 29.91 31.69 33.30 32.31 30.80 32.72 33.10 31.08 29.31 25.50 24.14 23.37 27.48 27.60 30.04 32.83 27.92 30.30 28.87 23.82 17.13 15.49 17.87 16.98 25.16 21.49 24.56 31.84 34.72 36.99 38.18 39.71 40.38 41.67
47.32 46.68 44.37 43.12 43.45 43.09 40.38 32.10 20.31 27.94 29.36 32.62 31.04 30.87 28.02 30.38 30.12 29.95 27.73 24.62 30.33 27.87 22.23 20.94 20.45 27.10 31.74 28.43 24.69 23.93 23.77 16.20 9.73 13.13 15.79 23.70 17.36 23.67 33.70 36.07 38.28 39.96 39.34 39.54 40.95
45.43 39.21 39.61 41.99 42.23 41.73 33.85 22.33 22.83 28.09 31.08 29.52 30.88 26.94 25.85 29.16 28.29 27.32 25.82 25.38 28.60 29.03 21.52 21.02 21.15 29.56 31.07 30.76 28.57 23.83 20.71 26.04 19.59 21.17 16.94 19.24 23.29 29.24 34.07 34.72 37.17 38.37 39.43 38.79 41.62
38.45 37.69 40.13 42.93 43.17 39.35 29.84 26.81 26.51 31.33 31.84 31.24 26.50 27.30 22.50 23.19 24.21 23.79 24.70 29.91 29.28 31.09 30.41 25.72 20.11 27.80 29.30 30.41 29.14 26.93 28.85 19.66 19.78 4.86 8.50 13.05 17.93 21.72 28.92 32.30 36.06 37.74 38.31 40.20 41.42
40.07 35.76 40.22 42.46 42.94 34.59 23.39 26.68 29.21 33.34 33.28 29.70 27.57 25.04 24.94 24.31 24.99 23.89 25.48 29.37 30.98 30.29 30.27 27.14 23.89 23.52 26.63 23.92 21.94 25.31 24.04 25.11 23.64 20.31 15.27 14.49 16.73 32.36 32.67 35.05 35.43 37.77 40.25 42.27 41.32
38.87 30.65 39.61 42.93 31.77 30.52 26.70 28.66 35.15 32.91 34.92 32.33 30.69 28.58 25.94 26.69 25.23 25.26 25.38 28.32 32.05 31.46 25.44 28.91 25.43 20.40 21.95 28.06 29.93 28.29 25.36 23.82 15.66 16.65 21.35 21.33 19.44 35.42 35.50 36.89 37.57 39.28 39.68 40.26 39.45
33.87 34.09 40.12 39.78 23.26 22.64 29.32 30.47 32.27 31.48 31.49 30.37 29.06 30.38 31.43 26.57 23.08 26.85 27.69 32.06 31.34 29.25 27.01 29.07 23.17 14.77 19.77 22.59 28.08 24.94 27.01 28.31 27.90 26.44 18.41 16.21 20.55 34.45 35.78 37.10 38.90 37.64 38.69 37.58 37.94
34.51 27.91 33.25 36.36 33.73 27.70 28.22 28.81 28.35 32.80 31.49 32.20 31.08 31.88 27.53 26.11 27.65 25.33 26.53 31.29 32.01 30.62 35.22 33.65 25.82 21.79 15.41 19.97 22.66 22.51 25.22 26.96 26.63 21.37 20.74 21.23 23.55 30.20 32.29 34.64 36.24 38.30 38.48 38.59 38.05
34.06 29.82 31.82 26.87 27.38 29.98 30.26 30.09 27.50 27.60 32.53 32.39 30.01 29.15 26.77 25.03 25.57 25.33 26.74 27.42 30.32 34.56 31.65 29.50 21.66 24.41 25.10 25.81 25.33 24.79 24.66 24.71 25.25 25.98 22.77 25.49 27.06 29.22 31.74 34.13 36.58 36.53 36.45 35.82 33.89
31.81 29.61 33.36 31.95 32.82 30.16 30.65 27.29 27.90 29.18 29.51 28.35 27.48 29.69 29.22 25.65 25.15 24.02 26.06 26.21 26.00 28.68 27.41 29.41 18.41 22.65 22.21 26.22 25.87 24.64 24.15 24.84 27.44 27.07 25.76 28.14 27.97 31.98 33.48 35.04 33.99 33.74 33.42 31.67 31.38
35.71 35.80 34.86 30.43 27.96 26.79 27.41 29.57 29.19 30.48 31.94 32.00 30.65 28.03 27.53 28.80 29.72 29.70 29.65 28.84 28.22 27.16 26.49 27.72 25.96 24.31 19.61 24.77 24.86 20.91 23.96 24.52 27.01 27.23 26.76 23.25 28.13 31.70 30.84 33.11 32.05 31.38 31.19 30.04 29.74

GFSSW_sfc_wetblb_141.txt.gz
Wetbulb
54.46 53.92 53.80 53.61 52.76 52.57 52.67 52.91 52.75 52.52 52.87 53.16 53.17 53.68 54.41 54.65 53.40 50.12 43.87 50.16 53.72 58.71 56.54 48.91 48.11 47.24 47.28 48.86 51.06 49.32 44.04 40.38 41.41 41.63 44.95 48.29 47.67 50.42 51.40 50.28 50.40 51.95 52.01 54.24 59.00
54.77 54.18 53.96 53.36 52.44 52.49 52.56 52.53 52.35 52.17 52.60 52.75 53.07 53.74 54.81 54.70 49.28 45.36 54.11 56.75 57.79 59.52 48.25 46.79 45.89 45.19 43.90 43.85 47.24 47.37 42.57 41.86 45.31 46.43 46.39 48.43 47.32 48.49 47.79 48.66 48.79 50.20 52.80 54.24 55.92
55.15 54.19 53.28 52.72 52.21 52.16 52.24 52.08 52.06 51.86 52.20 52.28 53.03 53.95 54.86 53.42 42.75 45.45 58.30 58.17 58.51 55.54 50.72 50.62 50.28 48.49 44.43 43.31 44.28 44.07 41.73 44.35 46.22 47.61 47.87 46.50 46.49 47.94 45.79 44.58 47.84 47.98 50.20 52.64 53.30
55.49 54.20 52.79 52.12 51.73 51.94 51.75 51.57 51.66 51.44 51.63 52.20 53.20 53.87 54.62 50.01 37.28 47.95 59.29 58.76 58.53 52.14 48.60 46.96 46.34 45.18 43.59 42.26 43.42 39.97 42.69 44.39 43.80 44.95 43.19 43.10 45.99 45.24 46.31 46.91 49.60 50.60 51.60 51.08 52.12
55.19 53.93 52.28 51.56 51.45 51.61 51.60 51.24 50.77 50.80 51.01 51.69 52.88 53.88 49.57 38.24 39.22 50.23 56.79 57.13 52.68 50.52 46.97 45.49 43.38 43.29 40.96 41.64 41.01 40.42 42.16 42.56 44.05 42.39 42.41 43.88 43.27 44.32 45.30 48.09 49.30 49.92 50.07 51.23 52.20
55.00 53.59 52.16 51.45 51.22 51.30 51.13 50.73 50.05 50.05 50.39 51.33 52.53 53.67 46.42 35.17 43.45 48.61 48.75 48.48 49.38 48.48 45.46 46.03 44.52 44.72 42.00 40.24 39.92 40.85 40.90 41.67 42.22 42.74 43.35 42.04 43.51 43.19 45.67 48.99 47.96 48.76 49.52 50.46 51.04
55.00 53.30 52.78 51.41 51.11 50.84 50.45 50.11 49.45 49.49 50.33 51.09 52.25 51.30 44.07 39.15 48.20 50.14 51.05 48.54 47.86 47.40 45.05 45.90 46.67 45.11 44.15 40.87 43.29 42.21 38.82 39.95 41.56 41.57 41.56 42.98 40.76 41.46 46.45 45.24 44.90 45.11 46.29 47.78 49.13
54.53 53.46 52.53 51.38 50.56 50.23 50.03 49.59 49.43 50.07 51.40 51.70 51.96 49.39 42.65 47.86 49.98 52.15 51.60 47.52 47.55 47.28 46.56 47.40 46.96 44.58 42.94 44.00 41.42 38.75 37.19 34.64 39.69 40.73 41.57 41.95 36.70 42.70 44.18 43.93 43.67 44.75 45.87 46.13 47.82
54.51 53.48 52.35 51.17 50.52 50.18 49.62 49.42 49.32 51.80 51.78 52.56 49.22 47.34 42.43 52.27 48.49 48.44 48.47 46.04 46.79 46.96 47.15 46.78 45.79 41.74 41.81 38.20 36.16 35.67 32.48 33.10 35.70 40.84 39.93 40.05 36.88 42.15 44.53 43.10 42.61 43.72 44.94 45.69 46.56
53.82 52.88 52.21 50.61 49.77 49.27 49.08 48.93 49.09 50.01 50.29 50.21 49.25 41.02 43.90 42.38 45.39 45.46 46.95 46.74 44.58 44.32 42.20 43.21 41.30 38.61 37.65 37.40 30.39 31.56 31.00 32.27 32.44 37.88 38.17 36.50 37.06 39.35 41.51 41.71 41.90 43.10 44.13 44.95 46.00
53.70 52.84 51.59 50.15 48.95 48.67 46.39 43.47 40.05 39.85 44.50 39.65 41.11 39.47 43.91 46.96 45.83 43.97 43.87 42.71 41.34 39.86 35.55 36.79 36.63 34.01 33.42 34.87 35.57 33.50 31.49 31.20 34.05 37.08 35.88 35.91 36.20 38.29 40.67 40.39 41.03 42.18 43.62 43.63 44.76
53.33 52.52 50.83 48.59 47.76 47.44 45.53 40.25 40.75 42.01 35.32 40.58 43.64 44.27 45.49 45.98 40.10 40.84 43.51 39.27 37.92 33.66 35.14 34.28 31.43 34.46 34.84 34.28 32.63 31.80 30.90 30.80 34.23 36.82 35.81 35.61 34.89 38.23 39.54 40.37 41.72 42.18 44.07 45.77 47.40
52.95 51.48 49.21 46.85 46.80 44.82 42.34 41.67 45.22 43.72 33.69 35.91 40.65 41.37 43.02 43.50 38.46 38.20 41.19 38.27 35.24 33.27 33.15 31.42 32.89 35.28 33.80 32.36 31.74 31.11 28.99 29.00 29.27 33.68 35.52 34.30 33.61 35.04 38.48 41.76 43.41 44.26 45.24 46.69 46.64
52.05 49.67 47.42 45.37 40.56 43.14 40.43 44.93 45.71 45.20 29.55 32.62 37.64 40.54 41.20 40.74 36.60 40.55 40.43 38.70 36.14 32.62 32.78 32.63 34.69 32.85 32.36 30.93 31.83 28.67 32.04 31.13 30.44 30.00 26.47 34.36 25.61 33.16 36.76 38.78 40.46 42.24 43.98 45.36 45.92
50.40 48.55 46.48 44.71 41.44 40.98 43.03 44.61 46.72 41.82 23.68 36.07 37.53 43.37 39.52 37.22 37.75 38.08 40.62 39.58 33.98 33.51 33.82 30.90 31.58 30.78 30.26 30.60 32.53 29.89 33.16 31.43 31.23 29.86 28.99 29.38 26.90 31.91 36.17 34.83 37.21 40.37 42.71 44.66 45.38
49.24 47.61 46.34 43.52 42.43 44.12 44.96 46.71 44.81 29.19 22.00 33.25 36.84 35.40 34.63 35.84 35.97 37.71 37.86 39.91 37.91 33.77 33.71 31.88 35.24 34.00 32.64 33.64 33.09 33.69 31.05 30.61 30.56 29.58 23.46 25.40 25.19 28.04 32.07 33.91 36.86 40.08 42.13 43.39 43.92
48.81 47.36 43.84 43.28 38.68 44.59 45.24 42.67 28.79 23.57 34.90 30.48 32.18 34.21 32.90 32.09 33.21 33.78 32.03 30.88 29.23 27.28 26.58 30.08 30.55 33.52 34.51 30.74 32.98 32.03 29.27 23.73 22.13 22.75 21.77 27.39 25.44 28.94 34.21 37.16 38.15 39.14 41.08 43.20 44.19
48.17 46.63 44.52 44.23 44.14 44.45 44.10 35.02 22.32 29.00 30.97 33.40 32.20 32.30 29.63 31.90 31.45 31.46 29.86 27.98 32.35 29.91 26.53 24.79 23.19 30.23 33.68 31.52 28.44 28.67 27.70 22.40 13.90 16.89 20.53 27.03 21.65 28.12 36.55 39.07 40.50 41.50 42.39 43.33 44.22
46.84 40.42 40.24 42.26 43.54 43.67 37.89 25.51 26.81 29.69 32.67 30.78 31.69 28.63 28.09 30.52 30.67 29.93 28.54 28.16 30.72 31.36 26.59 24.59 24.17 32.11 32.98 33.61 32.03 27.66 25.42 29.82 22.69 23.80 19.49 23.76 27.50 32.75 37.01 37.42 39.39 39.63 40.94 41.12 39.86
38.36 38.14 40.00 43.52 43.88 41.40 33.45 27.41 28.80 33.00 32.90 32.72 27.92 29.26 25.53 27.48 27.83 27.82 27.86 31.59 30.31 32.92 33.34 28.43 22.38 29.87 31.76 33.71 33.21 30.88 32.46 23.62 24.26 13.18 12.38 20.42 22.70 25.61 32.09 34.63 37.25 38.59 37.63 38.40 38.36
37.73 32.29 41.72 44.03 44.64 36.85 26.59 27.38 31.02 34.04 34.40 31.34 28.55 27.13 27.32 27.02 27.74 26.78 27.47 30.93 33.04 31.96 33.41 30.97 27.05 25.62 29.97 27.76 26.27 28.41 27.07 27.45 26.87 23.88 17.11 16.20 23.21 34.22 34.09 34.83 36.37 36.42 36.72 36.32 36.12
38.63 29.83 41.16 44.57 33.04 33.24 28.78 31.23 34.90 32.74 34.99 32.71 32.07 29.83 28.17 28.16 27.20 27.04 27.01 30.33 34.48 33.53 28.68 31.64 27.65 21.98 24.61 31.03 32.12 31.36 28.44 27.53 22.04 19.17 23.92 22.63 23.30 36.21 36.20 37.37 37.28 36.48 37.74 37.21 36.88
34.57 33.73 41.66 41.48 27.03 28.91 31.77 31.49 33.10 32.34 32.34 31.17 29.71 31.68 32.09 28.67 25.41 28.58 29.31 32.74 32.89 31.62 29.80 32.02 26.15 19.46 22.56 27.12 30.37 28.24 29.49 30.01 28.74 27.58 22.59 19.58 23.21 35.63 35.86 36.20 37.68 36.54 36.86 36.34 36.25
34.98 29.32 34.38 36.96 35.22 31.08 29.10 29.09 28.54 33.67 32.17 32.71 31.50 32.64 30.26 28.03 29.85 27.11 28.09 31.74 33.03 32.46 36.37 35.07 27.47 23.46 19.75 22.61 26.85 24.41 27.11 28.75 27.76 23.09 23.44 24.03 26.09 31.50 31.87 32.12 35.35 35.49 35.56 34.90 34.45
35.49 31.09 33.57 27.64 29.99 30.64 32.13 31.07 28.35 27.78 32.96 33.82 30.95 30.49 29.41 25.48 26.77 26.48 28.70 29.05 32.08 36.54 33.88 32.43 24.57 26.16 27.22 28.07 28.01 26.94 26.66 27.21 25.46 26.79 23.50 26.44 26.31 28.95 31.42 31.83 35.28 34.27 33.70 32.38 31.98
32.43 31.04 33.43 30.25 32.54 30.61 31.68 29.34 29.21 29.51 31.33 29.67 29.85 30.68 30.20 27.47 28.95 25.67 27.99 28.49 28.89 31.32 30.72 31.76 24.72 26.40 23.82 27.67 27.55 25.49 26.91 26.39 27.52 28.85 27.27 27.31 27.24 32.07 33.30 34.29 32.77 32.08 31.72 30.24 29.90
37.20 37.97 35.19 31.15 31.54 29.04 28.86 29.92 30.12 32.13 32.19 33.59 31.72 30.25 29.18 30.10 31.90 32.39 32.03 31.91 32.34 30.34 29.37 28.73 26.85 24.85 20.46 26.84 26.43 22.00 25.38 25.60 26.30 27.45 26.45 23.92 28.17 31.67 30.76 30.73 30.82 30.08 30.07 28.82 28.36

GFSSW_sfc_wetblb_144.txt.gz
Wetbulb
54.67 53.75 53.59 53.56 52.76 52.73 53.02 53.05 52.93 53.00 53.29 53.51 53.47 54.15 54.69 55.89 54.45 53.10 50.16 52.72 56.00 58.96 57.52 52.76 51.99 52.82 53.08 52.53 54.54 53.88 47.87 46.64 48.19 47.67 49.40 51.86 50.01 53.31 54.45 53.10 53.98 54.80 54.97 56.60 57.86
55.38 54.38 53.74 53.21 52.34 52.44 52.67 52.55 52.45 52.67 52.75 53.02 53.30 54.16 55.12 55.22 51.91 49.69 55.41 57.87 57.69 58.89 51.46 49.87 48.82 50.00 49.76 49.70 51.76 50.00 47.56 47.70 50.29 50.48 49.51 51.04 50.95 51.82 51.12 51.16 51.53 52.93 55.66 56.55 57.10
55.70 54.82 53.63 52.59 51.98 52.06 52.23 52.14 52.03 52.30 52.20 52.41 53.02 54.23 54.86 54.77 47.07 49.02 58.28 58.52 58.96 56.29 53.04 52.48 51.25 50.03 48.02 48.79 49.18 49.57 46.87 49.65 49.49 50.50 50.87 49.44 49.31 50.87 48.82 48.20 51.13 51.03 52.77 54.92 56.15
56.34 55.09 53.40 52.17 51.85 51.78 51.92 51.82 51.72 51.58 51.73 52.14 53.06 54.05 54.89 52.61 42.81 51.41 60.03 59.93 59.66 54.51 51.20 50.68 50.07 47.53 46.67 45.96 47.80 44.61 47.28 47.90 48.18 48.10 47.71 46.99 48.86 47.64 49.54 50.27 52.43 52.87 53.79 54.30 54.85
55.94 55.34 53.35 52.72 51.96 51.60 51.79 51.65 51.42 51.07 51.18 51.71 52.81 53.79 52.55 43.80 43.24 53.61 58.21 57.65 54.77 52.55 49.80 48.63 46.88 46.74 45.37 46.18 46.51 45.40 46.82 47.25 48.00 47.08 47.43 48.14 46.88 47.52 48.14 50.81 52.32 52.77 52.86 53.62 54.52
55.91 55.10 53.69 52.96 51.88 51.65 51.43 51.32 51.10 50.47 50.60 51.37 52.66 53.59 48.21 41.55 46.26 52.43 52.80 51.84 52.33 51.52 49.79 49.67 47.80 47.62 45.87 44.72 44.01 45.13 45.26 45.95 46.93 46.90 47.13 45.41 46.14 47.46 48.59 50.15 49.17 49.92 50.69 51.74 52.33
55.84 54.81 53.87 52.78 51.91 51.23 50.75 50.58 50.15 49.90 50.51 51.57 52.28 52.82 46.89 44.89 49.59 53.57 54.85 52.21 51.45 50.88 48.69 49.55 49.90 48.12 47.48 44.52 46.41 45.54 42.94 45.41 45.17 45.20 45.03 46.29 44.25 44.67 48.39 48.71 48.07 48.66 49.64 50.75 52.01
56.02 54.60 53.72 52.94 51.73 50.57 50.32 50.28 49.70 49.62 52.13 52.80 52.60 52.94 44.75 50.23 54.36 54.88 55.01 52.72 51.79 51.14 49.82 50.19 50.13 47.65 46.26 47.33 45.44 42.51 42.11 39.70 43.79 44.31 44.68 44.68 40.35 45.41 48.19 47.66 47.05 47.93 48.98 49.66 51.16
56.00 54.50 53.30 51.90 51.09 50.02 49.62 49.88 49.31 51.61 51.85 52.36 52.47 51.85 43.73 55.01 51.19 50.72 51.95 48.63 49.49 49.80 50.27 49.03 49.05 46.30 45.82 42.88 41.20 41.45 37.72 38.45 40.01 43.82 42.79 42.01 40.02 44.53 47.10 46.23 45.61 46.64 47.56 48.83 50.13
55.66 54.32 53.00 51.90 50.50 49.48 48.88 48.50 49.43 50.88 51.81 52.54 52.00 45.69 45.60 45.94 48.02 48.50 50.01 48.50 47.51 48.16 46.74 46.87 46.45 43.77 43.55 41.83 36.46 38.07 37.70 37.86 37.84 41.19 41.53 40.57 40.88 43.59 45.34 45.14 45.04 46.24 47.78 49.26 50.89
55.54 54.08 52.65 51.02 49.43 48.60 47.12 48.95 46.05 45.57 47.85 44.21 43.68 42.15 46.07 49.34 49.49 47.16 46.61 45.71 46.09 45.49 41.94 42.97 41.52 39.61 39.20 38.87 38.89 37.88 37.05 36.87 39.26 41.23 39.00 39.65 39.63 41.45 43.96 43.96 44.60 46.56 48.18 49.12 50.23
54.66 53.59 51.96 50.62 48.89 46.73 46.71 42.76 44.05 45.84 40.66 44.73 45.38 46.49 48.81 49.96 43.06 43.58 46.46 42.91 41.88 38.98 39.73 38.89 37.12 37.85 38.15 37.61 36.67 36.33 35.41 36.22 38.09 39.39 38.34 38.52 38.83 41.15 42.58 44.64 46.17 45.95 46.42 47.28 48.61
53.94 53.11 51.14 48.18 46.49 45.29 44.98 43.89 49.26 48.14 39.44 39.38 42.21 43.02 44.70 47.78 41.87 41.74 44.25 42.59 39.80 37.89 37.57 36.20 36.79 37.87 36.78 36.23 35.39 35.66 34.01 34.27 33.65 37.23 39.32 38.02 37.48 38.98 42.52 44.76 45.02 45.92 47.00 47.78 48.24
53.33 51.58 48.81 46.56 42.20 43.67 41.38 46.22 48.19 48.01 37.27 39.05 39.21 42.27 45.27 45.46 39.45 43.65 44.06 42.72 39.79 37.23 37.51 36.86 37.99 36.15 36.01 34.50 35.88 33.64 35.54 34.88 34.82 34.20 32.04 37.52 30.82 37.57 39.76 40.99 42.38 44.41 45.76 46.71 47.98
52.14 49.58 47.63 47.85 44.25 43.63 44.48 46.91 48.82 46.82 29.82 38.64 39.61 47.05 45.28 41.13 41.34 40.41 45.09 42.54 38.50 37.76 37.93 35.40 35.25 35.13 34.29 34.10 35.81 34.32 36.75 35.38 35.08 34.16 34.09 34.72 32.02 37.13 39.67 37.71 39.14 42.75 44.65 46.37 47.77
50.57 48.97 46.19 43.97 44.09 46.40 49.59 48.26 46.64 33.21 28.01 36.32 39.34 38.64 37.93 38.43 38.84 40.27 41.11 43.43 42.04 37.82 37.29 35.77 38.74 36.99 35.32 35.76 35.91 36.78 35.02 35.93 35.99 34.74 29.38 32.33 31.21 34.80 35.15 36.05 39.46 42.91 44.73 46.05 44.69
49.98 48.19 46.46 44.07 41.39 47.75 48.86 45.47 30.28 28.75 39.44 34.78 35.91 38.24 37.82 35.65 35.62 37.66 37.38 36.62 34.88 31.75 31.64 33.92 34.20 36.69 37.40 34.57 36.64 35.73 33.84 30.02 28.59 28.81 28.72 32.45 29.69 33.38 36.63 39.84 41.46 42.00 42.06 40.84 40.60
49.13 47.61 45.24 44.29 45.55 47.07 45.09 36.42 28.24 37.79 35.94 38.52 37.70 37.67 34.93 36.31 35.29 35.33 35.98 34.18 36.36 35.50 33.70 31.04 28.35 34.54 36.25 34.38 32.06 32.28 32.05 28.24 20.55 24.95 27.67 32.46 27.09 32.80 38.51 42.59 43.14 43.25 41.62 39.90 38.29
47.43 43.94 42.64 43.47 46.82 45.57 37.79 30.14 36.33 36.60 37.83 35.54 36.28 33.95 33.22 34.85 35.61 35.24 34.73 34.85 35.40 36.53 32.25 30.74 29.50 35.61 35.81 36.22 35.02 32.03 31.17 33.55 26.49 28.44 25.01 30.26 31.87 36.72 39.65 40.47 41.23 40.40 38.25 37.63 38.37
42.81 39.70 38.99 44.10 46.79 44.10 33.82 32.50 36.82 37.78 37.82 38.33 34.01 36.16 32.23 33.49 33.42 34.37 33.73 35.87 34.25 36.56 37.59 33.46 27.93 33.78 34.88 36.78 36.22 33.85 36.02 28.41 29.65 18.19 17.86 26.69 27.86 31.19 35.21 36.48 39.16 36.66 37.08 36.76 37.92
40.95 35.08 41.49 45.67 46.80 38.57 30.22 33.51 35.15 37.53 38.12 37.10 35.10 32.92 34.99 33.19 34.76 33.84 33.45 34.95 36.38 35.50 37.04 35.40 31.54 30.30 33.34 31.49 30.97 32.15 30.99 31.28 31.15 28.59 22.15 21.29 27.87 37.29 34.47 35.29 36.25 36.86 37.59 36.95 37.11
38.71 29.43 42.14 45.71 35.47 37.21 34.60 36.07 37.09 36.49 37.67 36.13 37.27 35.60 35.07 34.56 32.93 32.86 32.23 34.77 38.21 37.65 32.62 35.58 32.27 27.80 29.27 34.57 35.92 34.57 31.87 30.45 26.16 23.74 27.55 26.02 26.79 38.96 38.12 37.78 36.82 37.58 37.74 38.70 38.39
33.24 33.19 41.75 42.41 31.47 33.22 36.25 34.91 35.98 35.08 35.93 35.04 33.78 35.74 36.41 34.24 30.24 33.65 33.78 36.98 37.53 36.15 34.04 35.19 30.28 24.56 26.40 31.34 33.81 31.73 33.38 33.01 31.22 29.47 25.00 22.82 27.28 39.86 39.18 38.10 36.93 37.04 37.64 37.98 38.05
35.34 30.51 33.06 37.46 38.36 36.84 33.59 33.67 32.21 35.74 35.05 35.86 34.96 36.24 34.71 32.65 34.81 31.81 31.69 34.28 36.13 36.05 35.95 37.05 31.67 28.69 26.39 27.96 32.16 28.52 30.70 32.36 31.08 25.96 27.30 28.21 30.07 34.54 35.21 33.73 35.77 36.04 36.85 37.59 37.22
34.51 34.03 37.12 29.13 32.15 36.48 36.83 34.67 30.30 28.60 34.68 36.24 32.75 34.68 33.81 30.04 31.38 30.82 33.08 33.03 35.17 36.34 36.48 35.39 28.09 30.17 30.68 31.23 31.35 30.50 30.19 31.36 29.49 30.44 25.97 29.59 29.77 33.15 33.70 34.35 34.22 35.44 35.57 35.24 34.92
32.44 35.21 37.43 34.49 36.73 34.56 35.51 32.35 31.71 32.63 33.75 32.29 32.52 34.54 35.01 31.69 32.91 30.00 32.65 32.78 31.91 35.96 35.18 35.82 29.23 29.02 27.14 30.84 30.79 28.71 31.32 31.60 31.20 31.45 31.26 31.52 30.92 35.08 36.61 36.39 33.17 34.01 32.98 32.66 32.91
39.78 42.05 37.26 34.85 34.32 32.67 33.80 34.13 33.96 35.45 34.29 37.18 36.55 34.38 32.99 34.39 37.31 38.33 38.24 37.62 36.94 34.47 33.46 33.23 31.43 28.61 24.53 29.91 29.44 25.53 29.96 30.40 30.33 30.83 29.89 26.45 31.68 34.81 33.66 33.40 31.99 31.89 32.21 31.14 31.09

GFSSW_sfc_wetblb_147.txt.gz
Wetbulb
55.40 54.24 53.99 53.72 52.85 52.77 53.15 53.23 52.98 53.33 53.61 53.70 53.87 54.26 55.08 55.73 54.49 55.46 53.50 52.51 57.07 58.88 58.03 55.99 54.23 55.38 56.17 55.30 56.37 56.33 50.01 48.42 49.95 50.46 51.32 53.99 51.68 54.63 56.30 54.32 55.14 56.08 56.20 57.68 59.16
56.06 55.23 54.28 53.53 52.77 52.96 52.90 52.71 52.61 52.92 53.19 53.19 53.46 54.15 55.31 55.10 54.23 51.28 53.80 55.24 58.40 59.37 55.85 52.77 51.69 52.83 52.12 52.26 54.15 52.37 49.70 49.96 52.94 52.56 51.71 52.63 52.57 53.16 52.57 52.73 52.74 54.27 56.87 57.87 58.01
56.54 55.83 54.71 53.39 52.71 52.72 52.71 52.55 52.27 52.44 52.79 52.77 53.21 54.37 54.84 54.81 52.04 51.93 57.79 59.01 58.89 56.64 54.86 53.88 52.97 52.08 50.58 52.36 52.12 52.02 48.93 52.25 52.49 52.63 52.34 50.85 50.84 52.31 50.48 49.74 52.64 52.34 53.78 55.77 56.69
57.30 56.37 55.13 53.96 52.96 52.50 52.47 52.56 52.27 51.94 52.04 52.22 52.91 54.12 54.93 54.82 46.63 54.54 59.28 59.80 58.91 56.61 53.07 52.12 52.03 50.03 49.45 49.46 51.62 47.28 50.53 50.64 50.57 51.17 49.74 49.03 50.67 49.47 50.73 51.32 53.83 53.79 54.58 55.15 55.49
56.97 56.58 55.44 54.39 53.33 52.41 52.20 52.43 52.04 51.73 51.34 51.93 52.55 53.64 55.35 50.18 49.41 55.13 58.21 57.65 56.42 54.20 52.32 51.33 49.80 49.93 48.09 49.73 50.04 48.44 49.40 50.32 50.32 49.62 49.40 49.75 48.22 48.53 49.06 51.95 53.18 52.96 53.14 53.67 54.42
56.65 56.09 55.32 54.61 53.54 52.42 52.16 52.03 51.69 51.09 50.65 51.44 52.52 52.96 52.96 46.68 49.16 53.55 53.77 53.66 53.96 53.23 52.00 51.71 50.27 50.51 47.96 47.92 47.52 49.37 47.94 48.06 48.90 48.76 49.10 47.01 47.70 48.44 49.85 51.51 50.34 50.95 51.52 52.48 53.10
56.67 55.86 55.13 54.73 53.54 52.67 52.10 51.66 51.50 50.91 50.35 51.81 53.05 53.51 50.36 50.58 51.07 53.57 54.17 53.44 53.18 52.93 50.68 51.62 51.57 49.66 50.11 47.56 49.37 47.95 45.20 47.64 48.09 47.28 46.32 47.49 45.42 46.62 50.00 50.42 49.59 50.20 50.74 51.39 51.98
56.76 55.71 54.72 54.29 53.50 52.71 51.73 51.71 50.70 49.75 51.67 53.74 53.54 53.66 50.53 52.44 52.97 52.21 54.66 53.76 54.08 53.71 52.00 51.92 51.70 49.42 47.80 49.58 47.18 45.00 45.98 42.24 46.43 45.82 46.42 45.51 42.02 47.80 49.52 48.62 47.74 48.40 49.28 49.79 51.42
56.52 55.59 54.50 53.40 52.59 51.98 51.37 50.91 50.30 50.21 52.86 52.63 53.90 52.42 49.41 54.03 49.95 53.31 54.10 50.93 51.29 51.29 51.78 50.66 50.80 48.12 47.91 44.52 43.67 45.40 41.18 42.83 43.43 45.81 44.12 43.54 42.02 46.02 48.24 47.49 46.71 47.56 48.39 50.46 52.14
56.40 55.69 54.36 52.85 52.02 51.30 49.90 49.46 50.14 50.90 52.46 54.06 52.79 47.94 51.07 48.29 50.69 50.47 52.68 51.13 48.93 49.31 48.34 48.20 48.11 45.49 45.97 43.68 38.97 40.92 41.33 42.04 40.90 44.04 43.33 42.00 42.40 44.94 46.32 46.21 46.31 47.19 49.67 50.62 51.12
56.34 55.57 53.94 52.49 51.54 49.53 46.87 49.21 49.83 49.34 50.61 50.37 48.42 45.93 47.34 50.74 51.47 49.27 50.34 48.45 48.81 47.91 44.02 46.64 43.18 42.29 42.54 42.98 41.51 40.38 39.52 39.01 41.30 43.13 40.54 40.60 40.91 42.89 45.39 46.88 47.50 47.94 48.36 49.09 49.96
56.18 54.99 53.38 52.32 50.48 48.64 46.46 47.07 47.77 47.90 45.92 50.80 48.79 48.16 50.32 50.89 45.48 47.42 49.09 45.06 44.50 42.36 43.76 42.00 39.96 41.90 41.13 40.30 39.07 38.86 38.01 38.44 40.27 41.52 40.20 40.35 40.13 43.31 45.29 46.32 46.67 46.77 47.51 48.16 49.34
55.64 54.31 52.78 50.54 47.11 44.68 44.28 48.40 51.25 48.91 44.42 49.46 47.92 47.46 47.62 48.70 45.52 45.26 47.02 46.02 43.27 41.79 41.48 40.05 40.70 40.49 39.00 39.05 38.05 38.98 37.77 37.88 36.83 39.37 41.00 40.44 39.10 41.26 44.82 45.72 45.76 46.82 47.84 48.45 49.22
54.64 53.47 50.52 46.84 45.10 47.91 43.42 48.71 49.47 49.52 40.74 45.32 41.39 44.35 47.28 47.32 43.71 46.70 47.60 45.57 42.67 40.69 40.89 41.08 42.13 38.94 38.50 37.85 38.10 35.86 38.91 38.01 37.04 36.54 34.06 40.10 32.78 39.67 42.94 43.18 43.32 44.84 47.01 47.67 47.51
53.76 51.60 48.47 50.11 50.49 47.23 50.69 50.02 49.64 49.31 31.05 44.14 42.23 48.84 47.16 44.41 43.64 42.93 46.93 44.07 41.08 40.84 40.34 38.90 38.47 37.68 37.44 38.14 38.48 36.84 39.08 37.77 37.44 36.28 36.34 37.02 34.93 38.47 41.81 39.98 40.64 44.92 45.27 45.90 46.15
52.41 50.41 48.44 46.95 48.25 47.51 49.32 50.78 49.06 37.30 32.35 39.98 42.52 41.41 41.52 43.10 41.40 43.10 43.06 44.99 44.65 40.87 40.37 39.52 41.38 39.43 39.00 38.95 38.42 39.14 37.48 38.15 38.26 36.62 31.82 36.72 35.36 36.38 38.39 38.49 41.46 43.74 43.83 44.06 44.09
51.27 49.69 48.37 49.07 45.09 49.17 48.83 45.97 34.78 34.36 45.25 40.11 38.80 40.95 40.69 38.86 39.41 39.63 39.64 38.95 36.88 34.06 34.66 36.55 37.28 39.22 39.63 36.81 39.45 38.59 36.61 31.86 31.24 31.51 31.64 36.79 33.17 35.87 39.03 42.07 42.18 41.35 42.18 43.33 43.90
49.98 48.73 47.04 46.00 50.41 48.91 47.36 38.08 32.30 41.94 43.14 43.97 42.02 40.69 38.36 39.68 38.97 39.14 38.81 37.31 40.02 39.29 37.31 33.47 31.24 37.48 39.83 38.09 36.24 35.47 34.97 30.65 24.79 28.24 31.79 35.62 30.73 35.41 40.63 43.90 43.67 43.32 43.52 43.38 43.61
49.31 46.05 43.16 45.58 48.62 47.64 40.94 32.77 36.69 41.84 45.68 40.15 40.53 37.89 38.15 38.81 38.96 38.27 38.38 38.27 39.98 39.94 34.91 34.81 33.91 38.55 38.32 38.72 37.31 35.99 32.69 37.08 30.50 32.34 28.19 32.58 35.89 38.59 40.70 41.37 42.27 40.07 40.49 39.81 42.02
44.66 42.25 40.23 46.77 48.60 45.22 37.95 35.28 41.56 46.76 44.46 41.90 36.68 39.58 36.74 37.49 36.06 37.10 37.12 39.94 38.83 40.21 41.27 38.17 32.56 37.15 37.53 38.32 38.17 36.13 38.69 30.74 32.33 21.75 22.81 30.57 31.28 33.14 36.97 37.42 39.44 38.49 38.64 39.08 41.61
43.19 38.20 41.30 46.15 47.21 38.99 32.22 38.83 43.65 42.55 41.76 40.08 39.39 39.26 39.82 37.91 37.70 36.84 37.32 38.62 40.49 39.05 40.56 38.77 35.72 34.09 36.24 34.19 34.24 34.64 33.05 33.32 33.74 32.42 25.44 24.50 31.60 39.12 37.24 38.26 38.72 39.93 40.68 39.80 40.52
41.12 32.57 42.22 44.92 34.29 35.99 35.36 41.69 43.34 40.24 41.32 39.71 40.94 41.29 38.19 40.07 37.54 37.85 37.30 38.40 41.12 40.37 35.54 38.86 35.86 31.47 32.91 37.36 38.40 37.22 35.16 34.62 28.45 26.41 30.27 28.31 28.29 40.94 40.83 40.10 39.80 39.72 40.49 40.41 41.43
33.84 31.94 40.99 42.39 30.77 31.94 42.36 41.74 41.15 40.19 39.67 40.10 39.53 41.46 41.69 39.49 35.25 38.20 37.87 40.49 40.58 39.14 36.99 38.06 33.60 28.82 29.17 34.12 36.16 33.67 35.67 35.85 33.70 31.65 26.47 24.30 28.60 40.77 38.91 38.13 39.51 39.32 39.66 40.16 40.76
35.21 29.32 34.39 35.61 37.25 35.76 37.87 38.86 36.93 41.42 40.92 40.53 39.54 40.27 38.78 37.37 38.33 36.36 36.34 37.91 39.68 39.45 37.93 39.75 34.50 31.88 28.52 31.04 35.50 30.90 33.80 35.20 33.91 28.25 29.21 29.81 31.73 35.96 37.72 37.25 37.92 38.06 38.12 39.25 39.34
38.21 34.65 39.72 31.74 34.05 37.36 38.96 38.34 35.98 33.97 39.30 40.06 37.52 38.24 37.39 33.84 34.64 34.84 35.44 34.95 36.91 37.29 37.18 37.13 30.08 32.88 33.07 33.66 33.70 33.36 33.10 33.57 31.70 32.49 28.32 31.30 31.98 35.32 36.35 37.01 36.65 37.99 37.36 37.36 37.46
33.10 37.71 40.63 40.69 39.08 36.90 37.80 36.34 36.39 37.16 36.86 35.75 36.01 36.62 37.13 34.39 35.56 31.75 34.69 34.44 33.90 37.17 35.90 37.51 31.48 31.72 29.85 33.29 33.28 31.26 33.44 33.86 33.84 33.94 33.76 33.57 32.46 38.53 38.27 38.77 37.14 37.21 35.08 35.14 35.77
40.56 45.65 41.61 39.15 37.35 35.02 36.95 38.99 39.08 40.14 39.28 40.23 37.88 35.28 33.75 35.73 39.83 40.35 41.46 40.39 38.56 35.94 35.24 35.19 33.11 30.32 26.85 32.42 32.21 27.72 32.47 33.81 34.11 33.93 32.38 28.83 34.40 37.20 35.60 35.02 35.41 35.20 34.41 34.13 35.05